| time (UTC) | temp F | wind direction | speed knots | gust knots | rain 1hr in | rain 24hr in | rain mn in | humidity % | barometer mb |
| 20260510081623 | 50 | 114 | 0.0 | 1.7 | 0.00 | 0.00 | 0.00 | 96 | 1011.1 |
| 20260510081120 | 50 | 188 | 0.0 | 0.0 | 0.00 | 0.00 | 0.00 | 96 | 1010.8 |
| 20260510080619 | 50 | 210 | 1.7 | 1.7 | 0.00 | 0.00 | 0.00 | 96 | 1010.9 |
| 20260510080116 | 50 | 254 | 0.0 | 0.9 | 0.00 | 0.00 | 0.00 | 96 | 1010.9 |
| 20260510075614 | 51 | 234 | 2.6 | 2.6 | 0.00 | 0.00 | 0.00 | 96 | 1010.7 |
| 20260510075111 | 51 | 126 | 0.9 | 1.7 | 0.00 | 0.00 | 0.00 | 96 | 1010.8 |
| 20260510074608 | 50 | 261 | 0.0 | 0.0 | 0.00 | 0.00 | 0.00 | 95 | 1010.8 |
| 20260510074103 | 51 | 188 | 0.0 | 1.7 | 0.00 | 0.00 | 0.00 | 95 | 1010.7 |
| 20260510073559 | 51 | 262 | 0.0 | 0.9 | 0.00 | 0.00 | 0.00 | 95 | 1010.7 |
| 20260510073057 | 51 | 261 | 0.0 | 0.9 | 0.00 | 0.00 | 0.00 | 95 | 1010.9 |
| 20260510072553 | 51 | 229 | 0.0 | 1.7 | 0.00 | 0.00 | 0.00 | 95 | 1010.7 |
| 20260510072049 | 51 | 261 | 0.0 | 0.0 | 0.00 | 0.00 | 0.00 | 95 | 1010.6 |
| 20260510071545 | 51 | 286 | 0.0 | 1.7 | 0.00 | 0.00 | 0.00 | 95 | 1010.7 |
| 20260510071043 | 51 | 279 | 0.0 | 1.7 | 0.00 | 0.00 | 0.00 | 95 | 1010.5 |
| 20260510070540 | 51 | 261 | 0.0 | 1.7 | 0.00 | 0.00 | 0.00 | 95 | 1010.6 |
| 20260510070037 | 51 | 157 | 0.0 | 0.9 | 0.00 | 0.00 | 0.00 | 95 | 1010.3 |
| 20260510065533 | 51 | 240 | 0.0 | 0.9 | 0.00 | 0.00 | 0.00 | 94 | 1010.6 |
| 20260510065029 | 51 | 103 | 0.0 | 1.7 | 0.00 | 0.00 | 0.00 | 94 | 1010.5 |
| 20260510064526 | 51 | 147 | 0.0 | 1.7 | 0.00 | 0.00 | 0.00 | 94 | 1010.6 |
| 20260510064022 | 51 | 306 | 0.0 | 1.7 | 0.00 | 0.00 | 0.00 | 94 | 1010.5 |
| 20260510063519 | 51 | 279 | 0.0 | 1.7 | 0.00 | 0.00 | 0.00 | 94 | 1010.2 |
| 20260510063017 | 51 | 233 | 0.0 | 1.7 | 0.00 | 0.00 | 0.00 | 94 | 1010.3 |
| 20260510062512 | 51 | 188 | 0.0 | 1.7 | 0.00 | 0.00 | 0.00 | 93 | 1010.5 |
| 20260510062008 | 51 | 228 | 1.7 | 2.6 | 0.00 | 0.00 | 0.00 | 93 | 1010.5 |
| 20260510061505 | 51 | 139 | 1.7 | 1.7 | 0.00 | 0.00 | 0.00 | 93 | 1010.5 |
| 20260510061001 | 51 | 286 | 0.0 | 0.9 | 0.00 | 0.00 | 0.00 | 93 | 1010.3 |
| 20260510060458 | 52 | 289 | 0.9 | 1.7 | 0.00 | 0.00 | 0.00 | 93 | 1010.3 |
| 20260510055954 | 52 | 195 | 0.9 | 2.6 | 0.00 | 0.00 | 0.00 | 93 | 1010.6 |
| 20260510055450 | 52 | 131 | 1.7 | 1.7 | 0.00 | 0.00 | 0.00 | 92 | 1010.3 |
| 20260510054948 | 52 | 172 | 0.0 | 1.7 | 0.00 | 0.00 | 0.00 | 92 | 1010.2 |
| 20260510054443 | 52 | 270 | 0.0 | 1.7 | 0.00 | 0.00 | 0.00 | 92 | 1010.2 |
| 20260510053938 | 53 | 90 | 0.0 | 1.7 | 0.00 | 0.00 | 0.00 | 92 | 1010.3 |
| 20260510053434 | 53 | 0 | 0.0 | 1.7 | 0.00 | 0.00 | 0.00 | 91 | 1010.2 |
| 20260510052930 | 53 | 106 | 0.0 | 1.7 | 0.00 | 0.00 | 0.00 | 91 | 1010.1 |
| 20260510052426 | 53 | 7 | 0.0 | 2.6 | 0.00 | 0.00 | 0.00 | 91 | 1010.0 |
| 20260510051923 | 53 | 121 | 1.7 | 1.7 | 0.00 | 0.00 | 0.00 | 91 | 1010.2 |
| 20260510051419 | 54 | 337 | 0.0 | 0.0 | 0.00 | 0.00 | 0.00 | 90 | 1010.1 |
| 20260510050916 | 54 | 144 | 1.7 | 1.7 | 0.00 | 0.00 | 0.00 | 90 | 1010.0 |
| 20260510050413 | 54 | 140 | 0.0 | 1.7 | 0.00 | 0.00 | 0.00 | 90 | 1010.2 |
| 20260510045910 | 54 | 130 | 1.7 | 1.7 | 0.00 | 0.00 | 0.00 | 90 | 1010.1 |
| 20260510045407 | 55 | 99 | 0.0 | 1.7 | 0.00 | 0.00 | 0.00 | 90 | 1010.0 |
| 20260510044903 | 55 | 135 | 1.7 | 2.6 | 0.00 | 0.00 | 0.00 | 90 | 1010.0 |
| 20260510044400 | 56 | 225 | 0.0 | 3.5 | 0.00 | 0.00 | 0.00 | 90 | 1010.3 |
| 20260510043857 | 56 | 263 | 0.0 | 0.0 | 0.00 | 0.00 | 0.00 | 91 | 1010.2 |
| 20260510043353 | 56 | 166 | 0.0 | 0.9 | 0.00 | 0.00 | 0.00 | 91 | 1010.0 |
| 20260510042851 | 56 | 203 | 0.9 | 1.7 | 0.00 | 0.00 | 0.00 | 92 | 1010.0 |
| 20260510042347 | 55 | 180 | 0.9 | 2.6 | 0.00 | 0.00 | 0.00 | 93 | 1010.3 |
| 20260510041843 | 55 | 243 | 0.9 | 1.7 | 0.00 | 0.00 | 0.00 | 92 | 1010.2 |
| 20260510041340 | 55 | 254 | 1.7 | 1.7 | 0.00 | 0.00 | 0.00 | 92 | 1010.1 |
| 20260510040838 | 55 | 203 | 0.0 | 1.7 | 0.00 | 0.00 | 0.00 | 92 | 1010.2 |
| 20260510040334 | 55 | 113 | 1.7 | 1.7 | 0.00 | 0.00 | 0.00 | 91 | 1010.3 |
| 20260510035830 | 55 | 126 | 0.0 | 2.6 | 0.00 | 0.00 | 0.00 | 91 | 1010.1 |
| 20260510035326 | 55 | 165 | 0.0 | 0.9 | 0.00 | 0.00 | 0.00 | 91 | 1010.1 |
| 20260510034822 | 55 | 126 | 0.9 | 1.7 | 0.00 | 0.00 | 0.00 | 90 | 1010.1 |
| 20260510034320 | 55 | 145 | 0.0 | 0.0 | 0.00 | 0.00 | 0.00 | 90 | 1010.1 |
| 20260510033816 | 55 | 270 | 0.9 | 0.9 | 0.00 | 0.00 | 0.00 | 90 | 1010.3 |
| 20260510033313 | 56 | 354 | 0.0 | 0.0 | 0.00 | 0.00 | 0.00 | 89 | 1010.2 |
| 20260510032809 | 56 | 111 | 0.0 | 0.0 | 0.00 | 0.00 | 0.00 | 89 | 1010.2 |
| 20260510032306 | 56 | 120 | 0.0 | 1.7 | 0.00 | 0.00 | 0.00 | 89 | 1010.0 |
| 20260510031802 | 57 | 128 | 1.7 | 1.7 | 0.00 | 0.00 | 0.00 | 89 | 1009.9 |
| 20260510031257 | 56 | 120 | 0.0 | 0.9 | 0.00 | 0.00 | 0.00 | 88 | 1010.1 |
| 20260510030751 | 57 | 270 | 0.0 | 0.0 | 0.00 | 0.00 | 0.00 | 88 | 1009.8 |
| 20260510030248 | 57 | 106 | 0.0 | 0.0 | 0.00 | 0.00 | 0.00 | 88 | 1009.8 |
| 20260510025745 | 57 | 106 | 0.0 | 0.0 | 0.00 | 0.00 | 0.00 | 87 | 1010.0 |
| 20260510025243 | 57 | 209 | 0.0 | 0.0 | 0.00 | 0.00 | 0.00 | 87 | 1009.8 |
| 20260510024740 | 58 | 209 | 0.0 | 0.9 | 0.00 | 0.00 | 0.00 | 87 | 1009.6 |
| 20260510024236 | 58 | 180 | 0.0 | 2.6 | 0.00 | 0.00 | 0.00 | 87 | 1009.7 |
| 20260510023732 | 58 | 222 | 2.6 | 2.6 | 0.00 | 0.00 | 0.00 | 87 | 1009.5 |
| 20260510023224 | 58 | 218 | 1.7 | 2.6 | 0.00 | 0.00 | 0.00 | 87 | 1009.5 |
| 20260510022720 | 58 | 212 | 1.7 | 1.7 | 0.00 | 0.00 | 0.00 | 86 | 1009.6 |
| 20260510022220 | 59 | 258 | 1.7 | 1.7 | 0.00 | 0.00 | 0.00 | 85 | 1009.2 |
| 20260510021715 | 59 | 228 | 1.7 | 1.7 | 0.00 | 0.00 | 0.00 | 85 | 1009.2 |
| 20260510021213 | 59 | 237 | 0.0 | 1.7 | 0.00 | 0.00 | 0.00 | 84 | 1009.0 |
| 20260510020708 | 59 | 172 | 0.0 | 1.7 | 0.00 | 0.00 | 0.00 | 84 | 1009.2 |
| 20260510020203 | 59 | 126 | 0.0 | 2.6 | 0.00 | 0.00 | 0.00 | 84 | 1009.1 |
| 20260510015659 | 59 | 245 | 1.7 | 2.6 | 0.00 | 0.00 | 0.00 | 83 | 1009.1 |
| 20260510015156 | 60 | 239 | 1.7 | 2.6 | 0.00 | 0.00 | 0.00 | 83 | 1009.2 |
| 20260510014656 | 60 | 180 | 0.0 | 1.7 | 0.00 | 0.00 | 0.00 | 83 | 1008.9 |
| 20260510014153 | 60 | 235 | 1.7 | 2.6 | 0.00 | 0.00 | 0.00 | 82 | 1008.6 |
| 20260510013648 | 60 | 228 | 1.7 | 2.6 | 0.00 | 0.00 | 0.00 | 81 | 1008.7 |
| 20260510013144 | 60 | 247 | 1.7 | 1.7 | 0.00 | 0.00 | 0.00 | 81 | 1008.7 |
| 20260510012644 | 61 | 246 | 0.0 | 1.7 | 0.00 | 0.00 | 0.00 | 80 | 1008.6 |
| 20260510012140 | 61 | 249 | 0.0 | 1.7 | 0.00 | 0.00 | 0.00 | 79 | 1008.4 |
| 20260510011635 | 61 | 243 | 1.7 | 1.7 | 0.00 | 0.00 | 0.00 | 79 | 1008.5 |
| 20260510011131 | 62 | 240 | 0.9 | 1.7 | 0.00 | 0.00 | 0.00 | 78 | 1008.4 |
| 20260510010627 | 62 | 195 | 0.9 | 1.7 | 0.00 | 0.00 | 0.00 | 78 | 1008.3 |
| 20260510010124 | 62 | 225 | 2.6 | 2.6 | 0.00 | 0.00 | 0.00 | 78 | 1008.3 |
| 20260510005619 | 62 | 230 | 2.6 | 2.6 | 0.00 | 0.00 | 0.00 | 77 | 1008.1 |
| 20260510005117 | 62 | 236 | 1.7 | 2.6 | 0.00 | 0.00 | 0.00 | 77 | 1008.2 |
| 20260510004615 | 63 | 240 | 1.7 | 1.7 | 0.00 | 0.00 | 0.00 | 76 | 1008.2 |
| 20260510004113 | 63 | 270 | 0.0 | 1.7 | 0.00 | 0.00 | 0.00 | 75 | 1008.0 |
| 20260510003610 | 64 | 240 | 0.0 | 0.9 | 0.00 | 0.00 | 0.00 | 74 | 1007.9 |
| 20260510003106 | 64 | 243 | 0.0 | 1.7 | 0.00 | 0.00 | 0.00 | 73 | 1007.8 |
| 20260510002600 | 65 | 249 | 0.9 | 1.7 | 0.00 | 0.00 | 0.00 | 72 | 1007.8 |
| 20260510002057 | 65 | 220 | 0.0 | 1.7 | 0.00 | 0.00 | 0.00 | 72 | 1007.7 |
| 20260510001555 | 65 | 228 | 1.7 | 1.7 | 0.00 | 0.00 | 0.00 | 72 | 1007.5 |
| 20260510001054 | 66 | 245 | 1.7 | 2.6 | 0.00 | 0.00 | 0.00 | 72 | 1007.7 |
| 20260510000548 | 66 | 233 | 1.7 | 2.6 | 0.00 | 0.00 | 0.00 | 72 | 1007.5 |
| 20260510000046 | 66 | 231 | 1.7 | 2.6 | 0.00 | 0.00 | 0.00 | 71 | 1007.5 |
| 20260509235542 | 67 | 245 | 1.7 | 2.6 | 0.00 | 0.00 | 0.00 | 70 | 1007.7 |
| 20260509235038 | 67 | 232 | 1.7 | 2.6 | 0.00 | 0.00 | 0.00 | 68 | 1007.4 |
| 20260509234534 | 68 | 247 | 1.7 | 2.6 | 0.00 | 0.00 | 0.00 | 69 | 1007.3 |
| 20260509234033 | 68 | 246 | 1.7 | 1.7 | 0.00 | 0.00 | 0.00 | 68 | 1007.6 |
| 20260509233530 | 68 | 259 | 1.7 | 2.6 | 0.00 | 0.00 | 0.00 | 68 | 1007.5 |
| 20260509233027 | 68 | 248 | 2.6 | 2.6 | 0.00 | 0.00 | 0.00 | 68 | 1007.2 |
| 20260509232524 | 69 | 263 | 0.9 | 1.7 | 0.00 | 0.00 | 0.00 | 67 | 1007.3 |
| 20260509232020 | 70 | 255 | 2.6 | 2.6 | 0.00 | 0.00 | 0.00 | 65 | 1007.5 |
| 20260509231517 | 71 | 229 | 1.7 | 3.5 | 0.00 | 0.00 | 0.00 | 60 | 1007.5 |
| 20260509231015 | 72 | 213 | 1.7 | 2.6 | 0.00 | 0.00 | 0.00 | 59 | 1007.2 |
| 20260509230511 | 72 | 254 | 0.0 | 1.7 | 0.00 | 0.00 | 0.00 | 62 | 1007.4 |
| 20260509230008 | 73 | 3 | 0.0 | 2.6 | 0.00 | 0.00 | 0.00 | 58 | 1007.4 |
| 20260509225503 | 74 | 0 | 0.0 | 2.6 | 0.00 | 0.00 | 0.00 | 57 | 1007.1 |
| 20260509224959 | 74 | 274 | 2.6 | 2.6 | 0.00 | 0.00 | 0.00 | 55 | 1007.2 |
| 20260509224455 | 74 | 90 | 0.0 | 1.7 | 0.00 | 0.00 | 0.00 | 54 | 1007.4 |
| 20260509223952 | 74 | 105 | 0.0 | 4.3 | 0.00 | 0.00 | 0.00 | 54 | 1007.6 |
| 20260509223449 | 74 | 270 | 0.0 | 3.5 | 0.00 | 0.00 | 0.00 | 54 | 1007.4 |
| 20260509222946 | 75 | 106 | 0.9 | 5.2 | 0.00 | 0.00 | 0.00 | 53 | 1007.2 |
| 20260509222442 | 75 | 266 | 2.6 | 4.3 | 0.00 | 0.00 | 0.00 | 54 | 1007.2 |
| 20260509221938 | 75 | 103 | 0.9 | 6.1 | 0.00 | 0.00 | 0.00 | 52 | 1007.3 |
| 20260509221434 | 76 | 217 | 1.7 | 4.3 | 0.00 | 0.00 | 0.00 | 52 | 1007.4 |
| 20260509220930 | 75 | 246 | 2.6 | 6.1 | 0.00 | 0.00 | 0.00 | 53 | 1007.4 |
| 20260509220426 | 75 | 262 | 0.9 | 4.3 | 0.00 | 0.00 | 0.00 | 55 | 1007.5 |
| 20260509215923 | 77 | 234 | 0.0 | 1.7 | 0.00 | 0.00 | 0.00 | 51 | 1007.3 |
| 20260509215418 | 76 | 131 | 2.6 | 6.1 | 0.00 | 0.00 | 0.00 | 50 | 1007.4 |
| 20260509214916 | 76 | 87 | 2.6 | 4.3 | 0.00 | 0.00 | 0.00 | 52 | 1007.3 |
| 20260509214413 | 76 | 243 | 1.7 | 3.5 | 0.00 | 0.00 | 0.00 | 52 | 1007.2 |
| 20260509213910 | 76 | 189 | 1.7 | 3.5 | 0.00 | 0.00 | 0.00 | 53 | 1007.5 |
| 20260509213405 | 75 | 247 | 2.6 | 3.5 | 0.00 | 0.00 | 0.00 | 52 | 1007.2 |
| 20260509212903 | 75 | 337 | 0.9 | 3.5 | 0.00 | 0.00 | 0.00 | 52 | 1007.4 |
| 20260509212400 | 74 | 233 | 0.0 | 2.6 | 0.00 | 0.00 | 0.00 | 52 | 1007.2 |
| 20260509211856 | 74 | 261 | 0.0 | 2.6 | 0.00 | 0.00 | 0.00 | 52 | 1007.1 |
| 20260509211352 | 75 | 114 | 0.0 | 2.6 | 0.00 | 0.00 | 0.00 | 53 | 1007.0 |
| 20260509210849 | 74 | 162 | 1.7 | 6.1 | 0.00 | 0.00 | 0.00 | 52 | 1007.2 |
| 20260509210346 | 75 | 139 | 0.0 | 9.6 | 0.00 | 0.00 | 0.00 | 51 | 1007.1 |
| 20260509205846 | 76 | 278 | 0.0 | 4.3 | 0.00 | 0.00 | 0.00 | 50 | 1007.3 |
| 20260509205340 | 77 | 282 | 3.5 | 13.9 | 0.00 | 0.00 | 0.00 | 50 | 1007.1 |
| 20260509204838 | 76 | 242 | 4.3 | 10.4 | 0.00 | 0.00 | 0.00 | 49 | 1006.9 |
| 20260509204334 | 78 | 259 | 5.2 | 14.8 | 0.00 | 0.00 | 0.00 | 47 | 1006.9 |
| 20260509203830 | 77 | 105 | 2.6 | 10.4 | 0.00 | 0.00 | 0.00 | 48 | 1007.0 |
| 20260509203327 | 78 | 228 | 0.0 | 10.4 | 0.00 | 0.00 | 0.00 | 48 | 1006.9 |
| 20260509202823 | 76 | 159 | 5.2 | 9.6 | 0.00 | 0.00 | 0.00 | 49 | 1006.8 |
| 20260509202320 | 78 | 225 | 3.5 | 3.5 | 0.00 | 0.00 | 0.00 | 47 | 1006.9 |
| 20260509201819 | 77 | 131 | 7.8 | 8.7 | 0.00 | 0.00 | 0.00 | 47 | 1007.0 |
| 20260509201316 | 77 | 283 | 5.2 | 6.1 | 0.00 | 0.00 | 0.00 | 48 | 1006.7 |
| 20260509200813 | 77 | 127 | 0.0 | 13.0 | 0.00 | 0.00 | 0.00 | 49 | 1006.8 |
| 20260509200308 | 77 | 123 | 1.7 | 5.2 | 0.00 | 0.00 | 0.00 | 49 | 1006.8 |
| 20260509195804 | 77 | 158 | 3.5 | 5.2 | 0.00 | 0.00 | 0.00 | 50 | 1007.0 |
| 20260509195300 | 77 | 266 | 2.6 | 6.1 | 0.00 | 0.00 | 0.00 | 51 | 1007.1 |
| 20260509194759 | 76 | 160 | 0.9 | 7.8 | 0.00 | 0.00 | 0.00 | 52 | 1007.2 |
| 20260509194255 | 77 | 75 | 4.3 | 12.2 | 0.00 | 0.00 | 0.00 | 49 | 1007.2 |
| 20260509193752 | 77 | 247 | 2.6 | 6.1 | 0.00 | 0.00 | 0.00 | 49 | 1007.5 |
| 20260509193247 | 77 | 103 | 5.2 | 7.8 | 0.00 | 0.00 | 0.00 | 48 | 1007.4 |
| 20260509192743 | 76 | 228 | 3.5 | 7.8 | 0.00 | 0.00 | 0.00 | 49 | 1007.4 |
| 20260509192238 | 76 | 254 | 2.6 | 9.6 | 0.00 | 0.00 | 0.00 | 49 | 1007.3 |
| 20260509191734 | 77 | 213 | 4.3 | 6.1 | 0.00 | 0.00 | 0.00 | 47 | 1007.3 |
| 20260509191231 | 77 | 242 | 2.6 | 6.1 | 0.00 | 0.00 | 0.00 | 46 | 1007.5 |
| 20260509190727 | 78 | 117 | 1.7 | 2.6 | 0.00 | 0.00 | 0.00 | 49 | 1007.6 |
| 20260509190224 | 76 | 315 | 0.0 | 7.8 | 0.00 | 0.00 | 0.00 | 47 | 1007.9 |
| 20260509185721 | 76 | 325 | 2.6 | 6.1 | 0.00 | 0.00 | 0.00 | 50 | 1007.9 |
| 20260509185217 | 76 | 147 | 2.6 | 4.3 | 0.00 | 0.00 | 0.00 | 52 | 1007.9 |
| 20260509184715 | 75 | 258 | 5.2 | 12.2 | 0.00 | 0.00 | 0.00 | 48 | 1008.0 |
| 20260509184212 | 75 | 218 | 4.3 | 7.8 | 0.00 | 0.00 | 0.00 | 49 | 1008.0 |
| 20260509183708 | 74 | 239 | 3.5 | 9.6 | 0.00 | 0.00 | 0.00 | 49 | 1008.0 |
| 20260509183203 | 75 | 198 | 2.6 | 11.3 | 0.00 | 0.00 | 0.00 | 50 | 1008.1 |
| 20260509182659 | 74 | 123 | 2.6 | 11.3 | 0.00 | 0.00 | 0.00 | 51 | 1008.2 |
| 20260509182157 | 74 | 134 | 4.3 | 11.3 | 0.00 | 0.00 | 0.00 | 52 | 1008.4 |
| 20260509181655 | 75 | 134 | 4.3 | 7.8 | 0.00 | 0.00 | 0.00 | 53 | 1008.5 |
| 20260509181152 | 74 | 77 | 0.9 | 7.0 | 0.00 | 0.00 | 0.00 | 53 | 1008.8 |
| 20260509180649 | 73 | 232 | 4.3 | 9.6 | 0.00 | 0.00 | 0.00 | 53 | 1008.8 |
| 20260509180144 | 73 | 214 | 1.7 | 9.6 | 0.00 | 0.00 | 0.00 | 55 | 1009.0 |
| 20260509175641 | 73 | 242 | 6.1 | 8.7 | 0.00 | 0.00 | 0.00 | 55 | 1008.9 |
| 20260509175138 | 72 | 285 | 3.5 | 8.7 | 0.00 | 0.00 | 0.00 | 57 | 1008.9 |
| 20260509174633 | 73 | 176 | 0.0 | 5.2 | 0.00 | 0.00 | 0.00 | 60 | 1008.7 |
| 20260509174128 | 70 | 237 | 4.3 | 11.3 | 0.00 | 0.00 | 0.00 | 60 | 1009.1 |
| 20260509173625 | 72 | 231 | 5.2 | 13.9 | 0.00 | 0.00 | 0.00 | 59 | 1008.9 |
| 20260509173120 | 73 | 157 | 0.0 | 4.3 | 0.00 | 0.00 | 0.00 | 61 | 1009.3 |
| 20260509172618 | 72 | 245 | 5.2 | 7.8 | 0.00 | 0.00 | 0.00 | 59 | 1009.3 |
| 20260509172114 | 72 | 292 | 1.7 | 5.2 | 0.00 | 0.00 | 0.00 | 60 | 1009.2 |
| 20260509171609 | 71 | 237 | 2.6 | 11.3 | 0.00 | 0.00 | 0.00 | 60 | 1009.5 |
| 20260509171106 | 71 | 127 | 1.7 | 13.0 | 0.00 | 0.00 | 0.00 | 62 | 1009.5 |
| 20260509170602 | 72 | 191 | 4.3 | 7.8 | 0.00 | 0.00 | 0.00 | 60 | 1009.5 |
| 20260509170058 | 71 | 168 | 0.0 | 6.1 | 0.00 | 0.00 | 0.00 | 61 | 1009.5 |
| 20260509165557 | 70 | 113 | 7.0 | 11.3 | 0.00 | 0.00 | 0.00 | 61 | 1009.4 |
| 20260509165052 | 70 | 274 | 1.7 | 16.5 | 0.00 | 0.00 | 0.00 | 59 | 1009.4 |
| 20260509164549 | 70 | 286 | 1.7 | 12.2 | 0.00 | 0.00 | 0.00 | 63 | 1009.5 |
| 20260509164044 | 70 | 157 | 0.9 | 3.5 | 0.00 | 0.00 | 0.00 | 63 | 1009.6 |
| 20260509163543 | 68 | 10 | 2.6 | 4.3 | 0.00 | 0.00 | 0.00 | 63 | 1009.5 |
| 20260509163038 | 68 | 121 | 2.6 | 7.0 | 0.00 | 0.00 | 0.00 | 62 | 1009.6 |
| 20260509162535 | 68 | 260 | 4.3 | 9.6 | 0.00 | 0.00 | 0.00 | 62 | 1009.6 |
| 20260509162031 | 70 | 101 | 4.3 | 7.8 | 0.00 | 0.00 | 0.00 | 63 | 1009.7 |
| 20260509161527 | 69 | 275 | 1.7 | 9.6 | 0.00 | 0.00 | 0.00 | 61 | 1009.6 |
| 20260509161022 | 68 | 112 | 1.7 | 9.6 | 0.00 | 0.00 | 0.00 | 63 | 1009.7 |
| 20260509160518 | 67 | 213 | 5.2 | 12.2 | 0.00 | 0.00 | 0.00 | 63 | 1009.7 |
| 20260509160014 | 68 | 339 | 1.7 | 8.7 | 0.00 | 0.00 | 0.00 | 63 | 1009.9 |
| 20260509155510 | 68 | 226 | 4.3 | 5.2 | 0.00 | 0.00 | 0.00 | 63 | 1009.7 |
| 20260509155006 | 68 | 151 | 2.6 | 6.1 | 0.00 | 0.00 | 0.00 | 66 | 1009.8 |
| 20260509154503 | 67 | 95 | 0.0 | 5.2 | 0.00 | 0.00 | 0.00 | 64 | 1009.6 |
| 20260509154001 | 66 | 138 | 2.6 | 8.7 | 0.00 | 0.00 | 0.00 | 67 | 1010.0 |
| 20260509153457 | 65 | 348 | 0.9 | 11.3 | 0.00 | 0.00 | 0.00 | 68 | 1009.7 |
| 20260509152954 | 64 | 112 | 1.7 | 5.2 | 0.00 | 0.00 | 0.00 | 68 | 1010.0 |
| 20260509152450 | 63 | 243 | 2.6 | 6.1 | 0.00 | 0.00 | 0.00 | 68 | 1010.3 |
| 20260509151947 | 63 | 283 | 2.6 | 12.2 | 0.00 | 0.00 | 0.00 | 67 | 1010.2 |
| 20260509151443 | 63 | 150 | 7.8 | 8.7 | 0.00 | 0.00 | 0.00 | 68 | 1010.2 |
| 20260509150941 | 63 | 121 | 0.0 | 3.5 | 0.00 | 0.00 | 0.00 | 69 | 1010.3 |
| 20260509150438 | 62 | 261 | 0.0 | 7.8 | 0.00 | 0.00 | 0.00 | 69 | 1010.3 |
| 20260509145937 | 62 | 244 | 5.2 | 7.8 | 0.00 | 0.00 | 0.00 | 69 | 1010.5 |
| 20260509145437 | 62 | 131 | 7.8 | 7.8 | 0.00 | 0.00 | 0.00 | 68 | 1010.7 |
| 20260509144932 | 62 | 250 | 6.1 | 7.8 | 0.00 | 0.00 | 0.00 | 67 | 1010.7 |
| 20260509144430 | 62 | 148 | 1.7 | 4.3 | 0.00 | 0.00 | 0.00 | 68 | 1010.2 |
| 20260509143927 | 63 | 113 | 4.3 | 5.2 | 0.00 | 0.00 | 0.00 | 68 | 1010.0 |
| 20260509143424 | 61 | 273 | 2.6 | 7.0 | 0.00 | 0.00 | 0.00 | 70 | 1010.1 |
| 20260509142920 | 60 | 247 | 7.0 | 7.8 | 0.00 | 0.00 | 0.00 | 69 | 1010.2 |
| 20260509142417 | 60 | 220 | 0.0 | 6.1 | 0.00 | 0.00 | 0.00 | 70 | 1010.1 |
| 20260509141912 | 60 | 84 | 0.9 | 5.2 | 0.00 | 0.00 | 0.00 | 70 | 1010.3 |
| 20260509141410 | 59 | 132 | 3.5 | 10.4 | 0.00 | 0.00 | 0.00 | 70 | 1010.5 |
| 20260509140906 | 60 | 270 | 0.0 | 5.2 | 0.00 | 0.00 | 0.00 | 70 | 1010.6 |
| 20260509140403 | 59 | 90 | 2.6 | 9.6 | 0.00 | 0.00 | 0.00 | 71 | 1010.6 |
| 20260509135901 | 59 | 134 | 3.5 | 7.0 | 0.00 | 0.00 | 0.00 | 71 | 1010.7 |
| 20260509135358 | 58 | 143 | 6.1 | 7.8 | 0.00 | 0.00 | 0.00 | 72 | 1010.8 |
| 20260509134855 | 58 | 212 | 0.0 | 8.7 | 0.00 | 0.00 | 0.00 | 72 | 1010.6 |
| 20260509134353 | 58 | 228 | 1.7 | 6.1 | 0.00 | 0.00 | 0.00 | 72 | 1010.8 |
| 20260509133849 | 58 | 98 | 0.9 | 4.3 | 0.00 | 0.00 | 0.00 | 72 | 1010.8 |
| 20260509133346 | 58 | 85 | 1.7 | 4.3 | 0.00 | 0.00 | 0.00 | 72 | 1010.5 |
| 20260509132845 | 57 | 233 | 1.7 | 4.3 | 0.00 | 0.00 | 0.00 | 73 | 1010.8 |
| 20260509132343 | 57 | 98 | 2.6 | 2.6 | 0.00 | 0.00 | 0.00 | 73 | 1010.7 |
| 20260509131839 | 57 | 237 | 2.6 | 4.3 | 0.00 | 0.00 | 0.00 | 73 | 1011.0 |
| 20260509131336 | 57 | 135 | 2.6 | 6.1 | 0.00 | 0.00 | 0.00 | 73 | 1010.9 |
| 20260509130833 | 57 | 121 | 1.7 | 4.3 | 0.00 | 0.00 | 0.00 | 73 | 1010.9 |
| 20260509130328 | 56 | 132 | 1.7 | 3.5 | 0.00 | 0.00 | 0.00 | 72 | 1011.0 |
| 20260509125825 | 56 | 130 | 3.5 | 6.1 | 0.00 | 0.00 | 0.00 | 72 | 1011.0 |
| 20260509125322 | 56 | 116 | 4.3 | 5.2 | 0.00 | 0.00 | 0.00 | 72 | 1010.9 |
| 20260509124818 | 56 | 183 | 0.0 | 3.5 | 0.00 | 0.00 | 0.00 | 71 | 1011.0 |
| 20260509124315 | 56 | 141 | 2.6 | 3.5 | 0.00 | 0.00 | 0.00 | 72 | 1011.1 |
| 20260509123813 | 56 | 130 | 2.6 | 2.6 | 0.00 | 0.00 | 0.00 | 72 | 1010.9 |
| 20260509123310 | 55 | 180 | 1.7 | 7.8 | 0.00 | 0.00 | 0.00 | 71 | 1011.1 |
| 20260509122806 | 55 | 195 | 0.9 | 3.5 | 0.00 | 0.00 | 0.00 | 71 | 1011.1 |
| 20260509122306 | 55 | 134 | 4.3 | 6.1 | 0.00 | 0.00 | 0.00 | 71 | 1011.1 |
| 20260509121800 | 55 | 151 | 0.9 | 4.3 | 0.00 | 0.00 | 0.00 | 72 | 1011.2 |
| 20260509121257 | 55 | 141 | 2.6 | 3.5 | 0.00 | 0.00 | 0.00 | 71 | 1011.3 |
| 20260509120755 | 55 | 111 | 2.6 | 3.5 | 0.00 | 0.00 | 0.00 | 71 | 1010.9 |
| 20260509120253 | 54 | 192 | 0.0 | 5.2 | 0.00 | 0.00 | 0.00 | 71 | 1010.9 |
| 20260509115751 | 54 | 233 | 1.7 | 7.0 | 0.00 | 0.00 | 0.00 | 71 | 1011.0 |
| 20260509115247 | 54 | 139 | 1.7 | 6.1 | 0.00 | 0.00 | 0.00 | 72 | 1011.0 |
| 20260509114745 | 54 | 225 | 4.3 | 7.0 | 0.00 | 0.00 | 0.00 | 71 | 1011.0 |
| 20260509114244 | 54 | 255 | 0.0 | 3.5 | 0.00 | 0.00 | 0.00 | 73 | 1011.0 |
| 20260509113742 | 53 | 184 | 1.7 | 2.6 | 0.00 | 0.00 | 0.00 | 73 | 1011.0 |
| 20260509113239 | 53 | 144 | 4.3 | 5.2 | 0.00 | 0.00 | 0.00 | 73 | 1011.0 |
| 20260509112736 | 53 | 115 | 3.5 | 3.5 | 0.00 | 0.00 | 0.00 | 73 | 1011.1 |
| 20260509112233 | 53 | 180 | 0.0 | 2.6 | 0.00 | 0.00 | 0.00 | 74 | 1011.1 |
| 20260509111730 | 52 | 135 | 3.5 | 4.3 | 0.00 | 0.00 | 0.00 | 74 | 1011.1 |
| 20260509111226 | 52 | 127 | 0.0 | 2.6 | 0.00 | 0.00 | 0.00 | 74 | 1011.1 |
| 20260509110724 | 52 | 146 | 2.6 | 4.3 | 0.00 | 0.00 | 0.00 | 74 | 1011.0 |
| 20260509110220 | 52 | 140 | 2.6 | 5.2 | 0.00 | 0.00 | 0.00 | 74 | 1011.2 |
| 20260509105719 | 52 | 117 | 0.9 | 2.6 | 0.00 | 0.00 | 0.00 | 74 | 1011.1 |
| 20260509105216 | 51 | 117 | 2.6 | 2.6 | 0.00 | 0.00 | 0.00 | 74 | 1011.0 |
| 20260509104713 | 51 | 152 | 1.7 | 3.5 | 0.00 | 0.00 | 0.00 | 74 | 1011.1 |
| 20260509104210 | 51 | 157 | 0.0 | 3.5 | 0.00 | 0.00 | 0.00 | 74 | 1011.1 |
| 20260509103708 | 51 | 96 | 0.0 | 3.5 | 0.00 | 0.00 | 0.00 | 74 | 1010.9 |
| 20260509103205 | 51 | 113 | 2.6 | 5.2 | 0.00 | 0.00 | 0.00 | 74 | 1011.0 |
| 20260509102703 | 51 | 238 | 2.6 | 2.6 | 0.00 | 0.00 | 0.00 | 73 | 1011.0 |
| 20260509102200 | 51 | 105 | 1.7 | 2.6 | 0.00 | 0.00 | 0.00 | 73 | 1011.2 |
| 20260509101656 | 51 | 169 | 0.9 | 5.2 | 0.00 | 0.00 | 0.00 | 72 | 1010.9 |
| 20260509101153 | 51 | 82 | 0.0 | 4.3 | 0.00 | 0.00 | 0.00 | 72 | 1010.8 |
| 20260509100650 | 51 | 74 | 1.7 | 4.3 | 0.00 | 0.00 | 0.00 | 72 | 1010.8 |
| 20260509100147 | 51 | 116 | 3.5 | 4.3 | 0.00 | 0.00 | 0.00 | 72 | 1010.9 |
| 20260509095644 | 51 | 252 | 1.7 | 6.1 | 0.00 | 0.00 | 0.00 | 72 | 1010.9 |
| 20260509095141 | 51 | 248 | 0.0 | 3.5 | 0.00 | 0.00 | 0.00 | 73 | 1011.0 |
| 20260509094637 | 51 | 249 | 0.9 | 2.6 | 0.00 | 0.00 | 0.00 | 73 | 1010.9 |
| 20260509094134 | 51 | 235 | 1.7 | 2.6 | 0.00 | 0.00 | 0.00 | 74 | 1010.8 |
| 20260509093633 | 51 | 225 | 1.7 | 2.6 | 0.00 | 0.00 | 0.00 | 74 | 1010.8 |
| 20260509093130 | 51 | 209 | 0.9 | 2.6 | 0.00 | 0.00 | 0.00 | 73 | 1010.9 |
| 20260509092627 | 51 | 237 | 2.6 | 3.5 | 0.00 | 0.00 | 0.00 | 75 | 1010.8 |
| 20260509092126 | 50 | 246 | 2.6 | 4.3 | 0.00 | 0.00 | 0.00 | 77 | 1011.0 |
| 20260509091624 | 50 | 232 | 1.7 | 2.6 | 0.00 | 0.00 | 0.00 | 79 | 1010.9 |
| 20260509091119 | 50 | 206 | 1.7 | 2.6 | 0.00 | 0.00 | 0.00 | 80 | 1010.7 |
| 20260509090617 | 49 | 258 | 1.7 | 2.6 | 0.00 | 0.00 | 0.00 | 80 | 1011.2 |
| 20260509090115 | 49 | 234 | 0.0 | 2.6 | 0.00 | 0.00 | 0.00 | 80 | 1011.0 |
| 20260509085612 | 49 | 248 | 1.7 | 2.6 | 0.00 | 0.00 | 0.00 | 81 | 1011.1 |
| 20260509085108 | 49 | 220 | 0.0 | 1.7 | 0.00 | 0.00 | 0.00 | 81 | 1011.2 |
| 20260509084605 | 48 | 264 | 0.9 | 1.7 | 0.00 | 0.00 | 0.00 | 80 | 1011.0 |
| 20260509084102 | 49 | 255 | 0.9 | 2.6 | 0.00 | 0.00 | 0.00 | 80 | 1010.9 |
| 20260509083559 | 49 | 215 | 0.0 | 2.6 | 0.00 | 0.00 | 0.00 | 80 | 1011.2 |
| 20260509083055 | 48 | 172 | 0.0 | 1.7 | 0.00 | 0.00 | 0.00 | 79 | 1011.1 |
| 20260509082553 | 49 | 195 | 0.0 | 1.7 | 0.00 | 0.00 | 0.00 | 78 | 1011.3 |
| 20260509082050 | 49 | 114 | 0.9 | 1.7 | 0.00 | 0.00 | 0.00 | 78 | 1011.0 |